Weather in Alnashi

Russia / Udmurt Republic     56°11′12″N   52°28′36″E
temp.,
°C
wind,
m/s
gust,
m/s
humid.,
%
clouds,
%
prec.,
mm/h
press.,
hPa
HPBL,
m
10 may, mon
mon1001:00+13se36625 0.0 101683
04:00+13se2260100 0.0 101737
07:00+15se366054 0.0 1019159
10:00+21se4644100 0.0 1019482
13:00+23sse4436100 0.0 10201895
16:00+23ese3333100 0.0 10212370
19:00+20e225093 0.0 102218
22:00+17e115249 0.0 102311
11 may, tue
tue1101:00+15nne2259100 0.0 102416
04:00+13ne2273100 0.0 102532
07:00+16ene1265100 0.0 102686
10:00+21e224887 0.0 1027557
13:00+24se223646 0.0 10271666
16:00+24se223273 0.0 10272390
19:00+21se224919 0.0 102732
22:00+17ssw11534 0.0 102811
12 may, wed
wed1201:00+15nnw11603 0.0 102911
04:00+13nne11785 0.0 102911
07:00+17ne127133 0.0 1030135
10:00+21ene225426 0.0 1030708
13:00+24ese22433 0.0 10291713
16:00+25s113714 0.0 10282286
19:00+22ne235437 0.0 102854
22:00+18se226247 0.0 102915
13 may, thu
thu1301:00+17e116824 0.0 102911
04:00+15e227317 0.0 102911
07:00+18e24670 0.0 1029165
10:00+22ese33520 0.0 1029704
13:00+24se22430 0.0 10281906
16:00+25se22398 0.0 10272096
19:00+23se225235 0.0 102720
22:00+19ese11590 0.0 102711
14 may, fri
fri1401:00+17s22640 0.0 102711
04:00+16ssw11674 0.0 102711
07:00+19sse23600 0.0 1027124
10:00+24s34490 0.0 1027663
13:00+26ssw44380 0.0 10262368
16:00+26sw553857 0.0 10252203
19:00+22sw37506 0.0 1024151
22:00+18sw22525 0.0 102416